IRIDIUM 7 1 24793U 97020B 23340.25386253 .00000463 00000-0 15586-3 0 9990 2 24793 86.3976 51.0175 0002226 101.1207 259.0239 14.35002205391712 IRIDIUM 5 1 24795U 97020D 23340.96416427 .00004706 00000-0 46963-3 0 9994 2 24795 86.3927 339.0178 0125034 328.6928 30.6890 14.85567284402369 IRIDIUM 4 1 24796U 97020E 23340.24506156 .00000452 00000-0 14924-3 0 9991 2 24796 86.3974 48.2702 0001973 96.3775 263.7646 14.35910753392238 IRIDIUM 914 1 24836U 97030A 23340.30630120 .00000638 00000-0 19755-3 0 9996 2 24836 86.3948 58.4809 0000505 144.0547 216.0686 14.39737022526686 IRIDIUM 16 1 24841U 97030F 23340.34562677 .00000633 00000-0 20461-3 0 9998 2 24841 86.4036 79.9508 0004217 98.4989 261.6687 14.37622644386683 IRIDIUM 911 1 24842U 97030G 23340.31686204 .00000905 00000-0 24724-3 0 9997 2 24842 86.4462 79.2507 0015363 152.8152 207.3858 14.46176893394271 IRIDIUM 17 1 24870U 97034B 23340.40131738 .00000709 00000-0 23399-3 0 9998 2 24870 86.3949 109.5893 0003368 71.1522 289.0041 14.36713459383321 IRIDIUM 920 1 24871U 97034C 23340.77144442 .00000611 00000-0 18591-3 0 9995 2 24871 86.3972 89.9586 0013426 119.0212 241.2334 14.40437850386165 IRIDIUM 921 1 24873U 97034E 23340.95525717 .00013970 00000-0 49975-3 0 9997 2 24873 86.3878 22.8483 0002200 255.7197 104.3806 15.28675255445576 IRIDIUM 26 1 24903U 97043A 23341.06401148 .00000494 00000-0 16287-3 0 9992 2 24903 86.3955 344.8001 0002337 95.0892 265.0572 14.36109442377080 IRIDIUM 22 1 24907U 97043E 23340.55276522 .00000479 00000-0 16126-3 0 9990 2 24907 86.3961 348.0971 0002136 91.7510 268.3930 14.35013494376623 DUMMY MASS 1 1 24925U 97048A 23341.21037664 .00000432 00000-0 46301-4 0 9999 2 24925 86.3363 33.1229 0005663 342.9416 17.1617 14.85956351422482 DUMMY MASS 2 1 24926U 97048B 23340.54226063 .00000476 00000-0 51691-4 0 9994 2 24926 86.3364 34.9401 0007064 354.6944 5.4204 14.85716646421930 IRIDIUM 29 1 24944U 97051A 23340.54723822 .00000494 00000-0 16525-3 0 9999 2 24944 86.3973 18.0560 0001909 91.9831 268.1584 14.35470835373323 IRIDIUM 33 1 24946U 97051C 23340.53670627 .00000306 00000-0 10204-3 0 9994 2 24946 86.3889 17.3302 0010048 99.5481 260.6851 14.34194788372654 IRIDIUM 28 1 24948U 97051E 23340.53941356 .00000459 00000-0 15005-3 0 9999 2 24948 86.3980 15.8971 0002596 98.3892 261.7600 14.36413366373692 IRIDIUM 36 1 24967U 97056C 23341.19555273 .00000460 00000-0 15009-3 0 9993 2 24967 86.3984 47.2754 0002179 89.9409 270.2038 14.36540706372083 IRIDIUM 39 1 25042U 97069D 23340.34481105 .00001012 00000-0 26924-3 0 9992 2 25042 86.3913 90.5003 0018753 17.5548 342.6299 14.47550913368074 IRIDIUM 38 1 25043U 97069E 23340.42859168 .00000705 00000-0 23138-3 0 9992 2 25043 86.3951 108.0816 0003565 120.6249 239.5300 14.37000530365688 IRIDIUM 42 1 25077U 97077A 23340.46148055 .00000667 00000-0 22626-3 0 9996 2 25077 86.3953 113.5574 0002537 104.6192 255.5285 14.35300549361021 IRIDIUM 44 1 25078U 97077B 23340.37988772 .00000702 00000-0 22081-3 0 9990 2 25078 86.3949 97.0121 0003822 79.7622 280.4007 14.39108712363303 IRIDIUM 45 1 25104U 97082A 23340.43563696 .00009023 00000-0 56784-3 0 9999 2 25104 86.3738 312.7846 0173299 220.4709 138.3529 14.97344861367818 IRIDIUM 24 1 25105U 97082B 23340.91469238 .00000673 00000-0 20368-3 0 9991 2 25105 86.3890 316.7130 0013558 116.0946 244.1650 14.40868903362791 IRIDIUM 51 1 25262U 98018A 23341.03030570 .00009416 00000-0 50467-3 0 9999 2 25262 86.3909 322.8915 0160909 170.4765 189.9588 15.04261795362536 IRIDIUM 57 1 25273U 98019B 23340.52068716 .00000436 00000-0 14615-3 0 9996 2 25273 86.3978 19.2118 0002165 93.5741 266.5703 14.35008887344641 IRIDIUM 63 1 25286U 98021B 23340.47614897 .00000612 00000-0 20605-3 0 9996 2 25286 86.3964 316.1694 0002035 88.0117 272.1313 14.35517762343668 IRIDIUM 69 1 25319U 98026A 23340.48394224 .00000580 00000-0 17897-3 0 9991 2 25319 86.3972 331.1199 0004365 77.8565 282.3122 14.39698457342645 IRIDIUM 71 1 25320U 98026B 23341.01370366 .00000497 00000-0 15168-3 0 9990 2 25320 86.3962 325.7090 0004139 108.5487 251.6162 14.40022532343482 IRIDIUM 73 1 25344U 98032C 23340.84593281 .00000805 00000-0 20200-3 0 9992 2 25344 86.4404 283.4981 0003018 85.4454 274.7095 14.50177591349609 IRIDIUM 82 1 25467U 98051A 23341.14433380 .00009397 00000-0 53475-3 0 9991 2 25467 86.3958 16.7082 0142052 205.4632 153.9561 15.04420664339417 IRIDIUM 2 1 25527U 98066A 23341.18783213 .00037550 00000-0 73144-3 0 9998 2 25527 85.5185 65.7178 0003826 2.9218 357.2060 15.47380144377300